| time (UTC) | temp C | wind direction | speed KPH | gust KPH | rain 1hr cm | rain 24hr cm | rain mn cm | humidity % | barometer mb |
| 20260505041522 | 13 | 0.0 | 0.0 | 0.00 | 0.03 | 0.00 | 92 | 1012.3 | |
| 20260505040522 | 13 | 0.0 | 0.0 | 0.00 | 0.03 | 0.00 | 92 | 1012.4 | |
| 20260505035522 | 13 | 0.0 | 1.6 | 0.00 | 0.03 | 0.00 | 92 | 1012.3 | |
| 20260505034522 | 13 | 0.0 | 4.8 | 0.00 | 0.03 | 0.00 | 91 | 1012.4 | |
| 20260505033525 | 13 | 0.0 | 0.0 | 0.00 | 0.03 | 0.00 | 91 | 1012.4 | |
| 20260505032522 | 13 | 0.0 | 0.0 | 0.00 | 0.03 | 0.00 | 91 | 1012.4 | |
| 20260505031522 | 13 | 0.0 | 0.0 | 0.00 | 0.03 | 0.00 | 90 | 1012.5 | |
| 20260505030522 | 14 | 0.0 | 0.0 | 0.00 | 0.03 | 0.00 | 90 | 1012.5 | |
| 20260505025522 | 14 | 0.0 | 0.0 | 0.00 | 0.03 | 0.00 | 91 | 1012.5 | |
| 20260505024522 | 14 | 0.0 | 0.0 | 0.00 | 0.03 | 0.00 | 90 | 1012.6 | |
| 20260505023603 | 14 | 0.0 | 0.0 | 0.00 | 0.03 | 0.00 | 90 | 1012.6 | |
| 20260505022542 | 14 | 0.0 | 0.0 | 0.00 | 0.03 | 0.00 | 91 | 1012.7 | |
| 20260505021522 | 14 | 0.0 | 0.0 | 0.00 | 0.03 | 0.00 | 91 | 1012.7 | |
| 20260505020527 | 14 | 0.0 | 0.0 | 0.00 | 0.03 | 0.00 | 90 | 1012.7 | |
| 20260505015523 | 14 | 0.0 | 0.0 | 0.00 | 0.03 | 0.00 | 90 | 1012.7 | |
| 20260505014547 | 14 | 0.0 | 0.0 | 0.00 | 0.03 | 0.00 | 90 | 1012.7 | |
| 20260505013522 | 14 | 0.0 | 1.6 | 0.00 | 0.03 | 0.00 | 90 | 1012.8 | |
| 20260505012522 | 14 | 0.0 | 0.0 | 0.00 | 0.03 | 0.00 | 90 | 1012.9 | |
| 20260505011550 | 14 | 0.0 | 1.6 | 0.00 | 0.03 | 0.00 | 90 | 1012.9 | |
| 20260505010522 | 14 | 0.0 | 1.6 | 0.00 | 0.03 | 0.00 | 90 | 1013.0 | |
| 20260505005525 | 14 | 0.0 | 1.6 | 0.00 | 0.03 | 0.00 | 90 | 1013.1 | |
| 20260505004532 | 14 | 0.0 | 0.0 | 0.00 | 0.03 | 0.00 | 89 | 1013.2 | |
| 20260505003522 | 14 | 0.0 | 0.0 | 0.00 | 0.03 | 0.00 | 90 | 1013.3 | |
| 20260505002522 | 14 | 0.0 | 0.0 | 0.00 | 0.03 | 0.00 | 90 | 1013.3 | |
| 20260505001527 | 14 | 0.0 | 0.0 | 0.00 | 0.03 | 0.00 | 90 | 1013.2 | |
| 20260505000532 | 14 | 0.0 | 0.0 | 0.00 | 0.03 | 0.00 | 90 | 1013.4 | |
| 20260504235522 | 14 | 0.0 | 0.0 | 0.00 | 0.03 | 0.03 | 90 | 1013.3 | |
| 20260504234522 | 14 | 0.0 | 1.6 | 0.00 | 0.03 | 0.03 | 89 | 1013.4 | |
| 20260504233525 | 15 | 0.0 | 1.6 | 0.00 | 0.03 | 0.03 | 90 | 1013.3 | |
| 20260504232543 | 14 | 0.0 | 0.0 | 0.00 | 0.03 | 0.03 | 90 | 1013.2 | |
| 20260504231542 | 15 | 0.0 | 0.0 | 0.00 | 0.03 | 0.03 | 89 | 1013.2 | |
| 20260504230523 | 15 | 0.0 | 0.0 | 0.00 | 0.03 | 0.03 | 90 | 1013.2 | |
| 20260504225524 | 15 | 0.0 | 1.6 | 0.00 | 0.03 | 0.03 | 90 | 1013.1 | |
| 20260504224542 | 15 | 0.0 | 0.0 | 0.00 | 0.03 | 0.03 | 89 | 1013.1 | |
| 20260504223522 | 15 | 0.0 | 0.0 | 0.00 | 0.03 | 0.03 | 89 | 1013.2 | |
| 20260504222522 | 15 | 0.0 | 1.6 | 0.00 | 0.03 | 0.03 | 88 | 1013.2 | |
| 20260504221522 | 15 | 0.0 | 0.0 | 0.00 | 0.03 | 0.03 | 88 | 1013.1 | |
| 20260504220522 | 15 | 0.0 | 1.6 | 0.00 | 0.03 | 0.03 | 87 | 1013.1 | |
| 20260504215523 | 15 | 0.0 | 1.6 | 0.00 | 0.03 | 0.03 | 87 | 1013.1 | |
| 20260504214524 | 15 | 0.0 | 3.2 | 0.00 | 0.03 | 0.03 | 87 | 1013.1 | |
| 20260504213522 | 16 | 0.0 | 1.6 | 0.00 | 0.03 | 0.03 | 87 | 1013.1 | |
| 20260504212523 | 16 | 0.0 | 1.6 | 0.00 | 0.03 | 0.03 | 87 | 1013.2 | |
| 20260504211523 | 16 | 0.0 | 1.6 | 0.00 | 0.03 | 0.03 | 87 | 1013.3 | |
| 20260504210523 | 16 | 0.0 | 0.0 | 0.00 | 0.03 | 0.03 | 86 | 1013.1 | |
| 20260504205522 | 16 | 0.0 | 1.6 | 0.00 | 0.03 | 0.03 | 86 | 1012.9 | |
| 20260504204542 | 16 | 0.0 | 3.2 | 0.00 | 0.03 | 0.03 | 86 | 1013.0 | |
| 20260504203522 | 16 | 0.0 | 0.0 | 0.00 | 0.03 | 0.03 | 86 | 1012.8 | |
| 20260504202526 | 16 | 0.0 | 0.0 | 0.00 | 0.03 | 0.03 | 85 | 1012.7 | |
| 20260504201522 | 16 | 0.0 | 1.6 | 0.00 | 0.03 | 0.03 | 85 | 1012.6 | |
| 20260504200522 | 16 | 0.0 | 1.6 | 0.00 | 0.03 | 0.03 | 85 | 1012.5 | |
| 20260504195522 | 16 | 0.0 | 0.0 | 0.00 | 0.03 | 0.03 | 85 | 1012.3 | |
| 20260504194525 | 16 | 0.0 | 0.0 | 0.00 | 0.03 | 0.03 | 85 | 1012.2 | |
| 20260504193550 | 16 | 0.0 | 1.6 | 0.00 | 0.03 | 0.03 | 86 | 1012.0 | |
| 20260504192526 | 16 | 0.0 | 0.0 | 0.00 | 0.03 | 0.03 | 88 | 1012.0 | |
| 20260504191528 | 16 | 0.0 | 1.6 | 0.00 | 0.03 | 0.03 | 89 | 1012.0 | |
| 20260504190522 | 16 | 338 | 1.6 | 3.2 | 0.00 | 0.03 | 0.03 | 88 | 1011.9 |
| 20260504185546 | 16 | 315 | 3.2 | 6.4 | 0.00 | 0.03 | 0.03 | 88 | 1011.8 |
| 20260504184522 | 16 | 0.0 | 0.0 | 0.00 | 0.03 | 0.03 | 87 | 1011.7 | |
| 20260504183522 | 16 | 0.0 | 1.6 | 0.00 | 0.03 | 0.03 | 87 | 1011.8 | |
| 20260504182522 | 17 | 68 | 1.6 | 3.2 | 0.00 | 0.03 | 0.03 | 87 | 1011.7 |
| 20260504181525 | 17 | 0.0 | 6.4 | 0.00 | 0.03 | 0.03 | 88 | 1011.7 | |
| 20260504180522 | 17 | 68 | 3.2 | 9.7 | 0.00 | 0.03 | 0.03 | 88 | 1011.6 |
| 20260504175522 | 18 | 45 | 4.8 | 14.5 | 0.00 | 0.03 | 0.03 | 89 | 1011.6 |
| 20260504174522 | 18 | 68 | 6.4 | 12.9 | 0.00 | 0.03 | 0.03 | 88 | 1011.4 |
| 20260504173545 | 18 | 68 | 4.8 | 11.3 | 0.00 | 0.03 | 0.03 | 88 | 1011.8 |
| 20260504172522 | 18 | 68 | 3.2 | 9.7 | 0.00 | 0.03 | 0.03 | 88 | 1011.6 |
| 20260504171522 | 18 | 68 | 4.8 | 8.0 | 0.00 | 0.03 | 0.03 | 87 | 1011.7 |
| 20260504170522 | 18 | 45 | 3.2 | 8.0 | 0.00 | 0.03 | 0.03 | 87 | 1011.4 |
| 20260504150522 | 19 | 113 | 1.6 | 6.4 | 0.00 | 0.03 | 0.03 | 82 | 1011.2 |
| 20260504140524 | 20 | 113 | 4.8 | 12.9 | 0.00 | 0.03 | 0.03 | 76 | 1011.4 |
| 20260504130542 | 18 | 135 | 6.4 | 16.1 | 0.00 | 0.03 | 0.03 | 94 | 1011.7 |
| 20260504110542 | 16 | 0.0 | 3.2 | 0.00 | 0.03 | 0.03 | 97 | 1013.3 | |
| 20260504100521 | 16 | 113 | 1.6 | 4.8 | 0.03 | 0.03 | 0.03 | 96 | 1013.7 |
| 20260504081524 | 17 | 0.0 | 3.2 | 0.00 | 0.00 | 0.00 | 77 | 1013.6 | |
| 20260504080541 | 18 | 0.0 | 0.0 | 0.00 | 0.03 | 0.00 | 77 | 1013.6 | |
| 20260504050521 | 15 | 0.0 | 1.6 | 0.00 | 0.15 | 0.00 | 82 | 1013.2 | |
| 20260504045543 | 15 | 0.0 | 1.6 | 0.00 | 0.15 | 0.00 | 83 | 1013.2 |